Location: North Evanston
(42.0634°N, 87.6976°W)
Time: 19:51:04
(UTC+00:00)

Injun/Solrad 3 - Pass Details

Date: 18 May 2026
Orbit: 867 x 989 km, 66.8° (Epoch: 6 June)

Event Time Altitude Azimuth Distance (km) Brightness Sun altitude
Rises 23:02:27 0° 276° (W) 3,567 12.5 21.2°
Reaches altitude 10° 23:06:40 10° 304° (NW) 2,658 11.6 20.4°
Maximum altitude 23:09:21 13° 330° (NNW) 2,472 10.8 20.0°
Drops below altitude 10° 23:12:05 10° 356° (N) 2,698 10.6 19.5°
Sets 23:16:27 0° 24° (NNE) 3,672 10.9 18.7°
